Time,TemperatureF,DewpointF,PressureIn,WindDirection,WindDirectionDegrees,WindSpeedMPH,WindSpeedGustMPH,Humidity,HourlyPrecipIn,Conditions,Clouds,dailyrainin,SoftwareType,DateUTC
2013-02-01 12:58:00,32.2,16.0,29.78,WNW,297,3.0,9.0,52,0.00,,,0.00,weatherlink.com 1.10,2013-02-01 17:58:00,
2013-02-01 13:04:00,32.1,16.0,29.78,WSW,245,2.0,9.0,51,0.00,,,0.00,weatherlink.com 1.10,2013-02-01 18:04:00,
2013-02-01 13:17:00,31.8,16.0,29.78,WNW,300,3.0,10.0,52,0.00,,,0.00,weatherlink.com 1.10,2013-02-01 18:17:00,
2013-02-01 13:32:00,31.8,15.0,29.79,WNW,291,5.0,10.0,50,0.00,,,0.00,weatherlink.com 1.10,2013-02-01 18:32:00,
2013-02-01 13:47:00,32.1,15.0,29.79,WNW,287,4.0,9.0,49,0.00,,,0.00,weatherlink.com 1.10,2013-02-01 18:47:00,
2013-02-01 14:02:00,32.0,15.0,29.80,WNW,297,4.0,9.0,50,0.00,,,0.00,weatherlink.com 1.10,2013-02-01 19:02:00,
2013-02-01 14:17:00,31.7,15.0,29.81,West,264,4.0,7.0,51,0.00,,,0.00,weatherlink.com 1.10,2013-02-01 19:17:00,
2013-02-01 14:32:00,31.6,13.0,29.81,WNW,283,3.0,10.0,46,0.00,,,0.00,weatherlink.com 1.10,2013-02-01 19:32:00,
2013-02-01 14:47:00,31.9,13.0,29.82,NW,311,5.0,11.0,45,0.00,,,0.00,weatherlink.com 1.10,2013-02-01 19:47:00,
2013-02-01 15:02:00,32.0,11.0,29.82,West,278,7.0,9.0,42,0.00,,,0.00,weatherlink.com 1.10,2013-02-01 20:02:00,
2013-02-01 15:17:00,32.1,11.0,29.83,WNW,288,5.0,9.0,42,0.00,,,0.00,weatherlink.com 1.10,2013-02-01 20:17:00,
2013-02-01 15:32:00,31.6,13.0,29.84,West,276,6.0,12.0,46,0.00,,,0.00,weatherlink.com 1.10,2013-02-01 20:32:00,
2013-02-01 15:47:00,31.2,12.0,29.85,West,262,4.0,9.0,46,0.00,,,0.00,weatherlink.com 1.10,2013-02-01 20:47:00,
2013-02-01 16:02:00,30.8,12.0,29.86,West,281,5.0,10.0,46,0.00,,,0.00,weatherlink.com 1.10,2013-02-01 21:02:00,
2013-02-01 16:17:00,30.6,10.0,29.88,NNW,340,3.0,11.0,43,0.00,,,0.00,weatherlink.com 1.10,2013-02-01 21:17:00,
2013-02-01 16:32:00,30.6,13.0,29.89,WNW,283,5.0,9.0,49,0.00,,,0.00,weatherlink.com 1.10,2013-02-01 21:32:00,
2013-02-01 16:47:00,29.8,13.0,29.90,WNW,284,4.0,10.0,50,0.00,,,0.00,weatherlink.com 1.10,2013-02-01 21:47:00,
2013-02-01 17:02:00,29.4,14.0,29.91,West,274,2.0,9.0,52,0.00,,,0.00,weatherlink.com 1.10,2013-02-01 22:02:00,
2013-02-01 17:17:00,29.3,13.0,29.93,NNW,328,4.0,10.0,50,0.00,,,0.00,weatherlink.com 1.10,2013-02-01 22:17:00,
2013-02-01 17:32:00,29.2,13.0,29.94,West,278,7.0,13.0,50,0.00,,,0.00,weatherlink.com 1.10,2013-02-01 22:32:00,
2013-02-01 17:47:00,28.4,14.0,29.96,West,267,5.0,12.0,56,0.00,,,0.00,weatherlink.com 1.10,2013-02-01 22:47:00,
2013-02-01 18:02:00,28.0,14.0,29.97,WNW,294,3.0,8.0,56,0.00,,,0.00,weatherlink.com 1.10,2013-02-01 23:02:00,
2013-02-01 18:17:00,28.1,12.0,29.98,WNW,290,6.0,11.0,52,0.00,,,0.00,weatherlink.com 1.10,2013-02-01 23:17:00,
2013-02-01 18:32:00,28.1,11.0,30.00,West,274,7.0,13.0,49,0.00,,,0.00,weatherlink.com 1.10,2013-02-01 23:32:00,
2013-02-01 18:47:00,27.9,11.0,30.01,NW,314,6.0,13.0,49,0.00,,,0.00,weatherlink.com 1.10,2013-02-01 23:47:00,
2013-02-01 19:17:00,27.3,11.0,30.03,WNW,295,7.0,14.0,50,0.00,,,0.00,weatherlink.com 1.10,2013-02-02 00:17:00,
2013-02-01 19:32:00,27.0,11.0,30.04,WNW,288,9.0,10.0,51,0.00,,,0.00,weatherlink.com 1.10,2013-02-02 00:32:00,
2013-02-01 19:48:00,26.5,10.0,30.05,West,263,5.0,14.0,49,0.00,,,0.00,weatherlink.com 1.10,2013-02-02 00:48:00,
2013-02-01 20:03:00,26.2,10.0,30.06,WSW,246,4.0,10.0,51,0.00,,,0.00,weatherlink.com 1.10,2013-02-02 01:03:00,
2013-02-01 20:18:00,25.8,9.0,30.07,WSW,252,0.0,11.0,49,0.00,,,0.00,weatherlink.com 1.10,2013-02-02 01:18:00,
2013-02-01 20:33:00,25.5,9.0,30.08,NW,307,6.0,9.0,50,0.00,,,0.00,weatherlink.com 1.10,2013-02-02 01:33:00,
2013-02-01 20:48:00,25.2,8.0,30.09,WNW,294,0.0,6.0,49,0.00,,,0.00,weatherlink.com 1.10,2013-02-02 01:48:00,
2013-02-01 21:03:00,25.1,9.0,30.09,WNW,302,0.0,0.0,50,0.00,,,0.00,weatherlink.com 1.10,2013-02-02 02:03:00,
2013-02-01 21:18:00,24.9,9.0,30.09,WNW,291,0.0,0.0,51,0.00,,,0.00,weatherlink.com 1.10,2013-02-02 02:18:00,
2013-02-01 21:33:00,24.9,9.0,30.10,West,273,0.0,0.0,52,0.00,,,0.00,weatherlink.com 1.10,2013-02-02 02:33:00,
2013-02-01 21:48:00,24.6,8.0,30.11,WNW,283,0.0,0.0,50,0.00,,,0.00,weatherlink.com 1.10,2013-02-02 02:48:00,
2013-02-01 22:03:00,24.4,9.0,30.12,WSW,245,0.0,0.0,52,0.00,,,0.00,weatherlink.com 1.10,2013-02-02 03:03:00,
2013-02-01 22:18:00,24.2,10.0,30.12,NW,321,0.0,0.0,54,0.00,,,0.00,weatherlink.com 1.10,2013-02-02 03:18:00,
2013-02-01 22:33:00,24.4,9.0,30.13,NNW,328,0.0,0.0,52,0.00,,,0.00,weatherlink.com 1.10,2013-02-02 03:33:00,
2013-02-01 22:48:00,24.4,9.0,30.13,WNW,297,0.0,0.0,53,0.00,,,0.00,weatherlink.com 1.10,2013-02-02 03:48:00,
2013-02-01 23:03:00,24.4,10.0,30.13,WNW,300,0.0,0.0,55,0.00,,,0.00,weatherlink.com 1.10,2013-02-02 04:03:00,
2013-02-01 23:18:00,24.4,10.0,30.14,WNW,295,0.0,0.0,55,0.00,,,0.00,weatherlink.com 1.10,2013-02-02 04:18:00,
2013-02-01 23:33:00,24.6,11.0,30.14,WNW,300,0.0,0.0,57,0.00,,,0.00,weatherlink.com 1.10,2013-02-02 04:33:00,
2013-02-01 23:48:00,24.5,11.0,30.14,NNW,333,0.0,0.0,56,0.00,,,0.00,weatherlink.com 1.10,2013-02-02 04:48:00,